Weather History for Monett, MO

Change the Weather History Date:

Thursday, July 11, 2013

  Actual Average (KJLN) Record (KJLN)
Temperature  
Mean Temperature 80 °F 80 °F  
Max Temperature 89 °F 90 °F 109 °F (1954)
Min Temperature 71 °F 70 °F 58 °F (1975)
Degree Days  
Heating Degree Days 0 0  
Month to date heating degree days 0  
Since 1 June heating degree days 5  
Since 1 July heating degree days 0  
Cooling Degree Days 15 15  
Month to date cooling degree days 161  
Year to date cooling degree days 659  
Since 1 June cooling degree days 479  
Growing Degree Days 30 (Base 50)    
Moisture  
Dew Point 67 °F    
Average Humidity 67    
Maximum Humidity 100    
Minimum Humidity 38    
Precipitation  
Precipitation 0.00 in 0.13 in 2.76 in (1958)
Month to date precipitation 1.54  
Year to date precipitation 25.35  
Sea Level Pressure  
Sea Level Pressure 30.02 in    
Wind  
Wind Speed 6 mph (ENE)    
Max Wind Speed 9 mph    
Max Gust Speed -    
Visibility 10 miles    
Events      
T = Trace of Precipitation, MM = Missing Value Source: NWS Daily Summary

Daily Weather History Graph

Daily Weather History Graph

Search for Another Location

Airport:

Trip Planner

Search our weather history database for the weather conditions in past years. The results will help you decide how hot, cold, wet, or windy it might be!

Date:

Astronomy

Jul. 11, 2013 Rise Set
Actual Time 6:06 AM CDT 8:36 PM CDT
Civil Twilight 5:35 AM CDT 9:07 PM CDT
Nautical Twilight 4:58 AM CDT 9:44 PM CDT
Astronomical Twilight 4:16 AM CDT 10:25 PM CDT
Moon 9:19 AM CDT (7/11) 10:24 PM CDT (7/11)
Length of Visible Light 15h 31m
Length of Day
14h 30m
Waxing Crescent, 11% of the Moon is Illuminated
Jul 11
Waxing Crescent
Jul 15
First Quarter
Jul 22
Full
Jul 29
Last Quarter
Aug 6
New

Hourly Weather History & Observations

Time (CDT) Temp. Heat Index Dew Point Humidity Pressure Visibility Wind Dir Wind Speed Gust Speed Precip Events Conditions
12:15 AM 77.0 °F - 73.4 °F 89% 30.01 in 10.0 mi NE 6.9 mph - N/A   Clear
12:35 AM 77.0 °F - 73.4 °F 89% 30.02 in 10.0 mi NE 6.9 mph - N/A   Clear
12:55 AM 77.0 °F - 73.4 °F 89% 30.02 in 10.0 mi NE 6.9 mph - N/A   Clear
1:15 AM 77.0 °F - 73.4 °F 89% 30.03 in 10.0 mi ENE 5.8 mph - N/A   Clear
1:35 AM 77.0 °F - 73.4 °F 89% 30.03 in 10.0 mi NE 6.9 mph - N/A   Scattered Clouds
1:55 AM 77.0 °F - 73.4 °F 89% 30.03 in 10.0 mi NE 5.8 mph - N/A   Scattered Clouds
2:15 AM 75.2 °F - 71.6 °F 89% 30.03 in 10.0 mi East 4.6 mph - N/A   Clear
2:35 AM 75.2 °F - 71.6 °F 89% 30.03 in 10.0 mi ENE 4.6 mph - N/A   Clear
2:55 AM 75.2 °F - 69.8 °F 83% 30.03 in 10.0 mi East 4.6 mph - N/A   Clear
3:15 AM 73.4 °F - 69.8 °F 88% 30.02 in 10.0 mi ESE 4.6 mph - N/A   Clear
3:35 AM 73.4 °F - 71.6 °F 94% 30.02 in 10.0 mi ESE 4.6 mph - N/A   Clear
3:55 AM 73.4 °F - 71.6 °F 94% 30.01 in 10.0 mi Calm Calm - N/A   Clear
4:15 AM 73.4 °F - 71.6 °F 94% 30.01 in 10.0 mi ESE 4.6 mph - N/A   Clear
4:35 AM 71.6 °F - 71.6 °F 100% 30.02 in 10.0 mi Calm Calm - N/A   Clear
4:55 AM 71.6 °F - 69.8 °F 94% 30.02 in 10.0 mi NE 5.8 mph - N/A   Clear
5:15 AM 71.6 °F - 71.6 °F 100% 30.02 in 10.0 mi NNE 5.8 mph - N/A   Clear
5:35 AM 71.6 °F - 69.8 °F 94% 30.02 in 10.0 mi NE 4.6 mph - N/A   Clear
5:55 AM 71.6 °F - 69.8 °F 94% 30.02 in 10.0 mi ENE 4.6 mph - N/A   Clear
6:15 AM 71.6 °F - 69.8 °F 94% 30.03 in 10.0 mi NE 5.8 mph - N/A   Clear
6:35 AM 71.6 °F - 69.8 °F 94% 30.02 in 7.0 mi NE 4.6 mph - N/A   Clear
6:55 AM 71.6 °F - 69.8 °F 94% 30.03 in 3.0 mi NE 6.9 mph - N/A   Clear
7:15 AM 73.4 °F - 69.8 °F 88% 30.04 in 10.0 mi East 4.6 mph - N/A   Clear
7:35 AM 73.4 °F - 69.8 °F 88% 30.04 in 10.0 mi ENE 4.6 mph - N/A   Clear
7:55 AM 77.0 °F - 71.6 °F 83% 30.05 in 10.0 mi ENE 5.8 mph - N/A   Clear
8:15 AM 77.0 °F - 71.6 °F 83% 30.05 in 10.0 mi East 5.8 mph - N/A   Clear
8:35 AM 78.8 °F - 71.6 °F 78% 30.06 in 10.0 mi ENE 6.9 mph - N/A   Clear
8:55 AM 78.8 °F - 69.8 °F 74% 30.05 in 10.0 mi East 6.9 mph - N/A   Clear
9:15 AM 80.6 °F 83.9 °F 69.8 °F 70% 30.05 in 10.0 mi ENE 8.1 mph - N/A   Clear
9:35 AM 80.6 °F 83.9 °F 69.8 °F 70% 30.05 in 10.0 mi ENE 9.2 mph - N/A   Clear
9:55 AM 82.4 °F 85.4 °F 68.0 °F 62% 30.04 in 10.0 mi NE 5.8 mph - N/A   Clear
10:15 AM 82.4 °F 85.4 °F 68.0 °F 62% 30.05 in 10.0 mi East 5.8 mph - N/A   Clear
10:35 AM 86.0 °F 90.4 °F 69.8 °F 58% 30.05 in 10.0 mi NE 5.8 mph - N/A   Clear
10:55 AM 84.2 °F 88.4 °F 69.8 °F 62% 30.04 in 10.0 mi ENE 4.6 mph - N/A   Clear
11:15 AM 82.4 °F 86.3 °F 69.8 °F 66% 30.05 in 10.0 mi ENE 5.8 mph - N/A   Clear
11:35 AM 82.4 °F 86.3 °F 69.8 °F 66% 30.05 in 10.0 mi NE 6.9 mph - N/A   Clear
11:55 AM 86.0 °F 91.8 °F 71.6 °F 62% 30.05 in 10.0 mi ENE 4.6 mph - N/A   Clear
12:15 PM 86.0 °F 90.4 °F 69.8 °F 58% 30.05 in 10.0 mi East 5.8 mph - N/A   Scattered Clouds
12:35 PM 87.8 °F 91.4 °F 68.0 °F 52% 30.05 in 10.0 mi ENE 4.6 mph - N/A   Clear
12:55 PM 87.8 °F 88.5 °F 62.6 °F 43% 30.04 in 10.0 mi East 5.8 mph - N/A   Clear
1:15 PM 87.8 °F 88.5 °F 62.6 °F 43% 30.04 in 10.0 mi North 5.8 mph - N/A   Clear
1:35 PM 87.8 °F 88.5 °F 62.6 °F 43% 30.04 in 10.0 mi NE 6.9 mph - N/A   Clear
1:55 PM 87.8 °F 88.5 °F 62.6 °F 43% 30.04 in 10.0 mi NNE 4.6 mph - N/A   Clear
2:15 PM 87.8 °F 88.5 °F 62.6 °F 43% 30.04 in 10.0 mi ENE 4.6 mph - N/A   Clear
2:35 PM 87.8 °F 88.5 °F 62.6 °F 43% 30.04 in 10.0 mi NNE 5.8 mph - N/A   Clear
2:55 PM 89.6 °F 90.1 °F 62.6 °F 40% 30.04 in 10.0 mi NE 6.9 mph - N/A   Clear
3:15 PM 89.6 °F 90.1 °F 62.6 °F 40% 30.04 in 10.0 mi NE 8.1 mph - N/A   Clear
3:35 PM 89.6 °F 90.1 °F 62.6 °F 40% 30.04 in 10.0 mi NE 6.9 mph - N/A   Clear
3:55 PM 87.8 °F 88.5 °F 62.6 °F 43% 30.03 in 10.0 mi NE 6.9 mph - N/A   Clear
4:15 PM 89.6 °F 90.1 °F 62.6 °F 40% 30.02 in 10.0 mi ENE 5.8 mph - N/A   Clear
4:35 PM 87.8 °F 88.5 °F 62.6 °F 43% 30.01 in 10.0 mi NE 9.2 mph - N/A   Clear
4:55 PM 87.8 °F 87.6 °F 60.8 °F 40% 30.01 in 10.0 mi ENE 8.1 mph - N/A   Clear
5:15 PM 87.8 °F 88.5 °F 62.6 °F 43% 30.00 in 10.0 mi NE 8.1 mph - N/A   Clear
5:35 PM 89.6 °F 89.5 °F 60.8 °F 38% 30.00 in 10.0 mi ENE 8.1 mph - N/A   Clear
5:55 PM 87.8 °F 87.6 °F 60.8 °F 40% 29.99 in 10.0 mi NE 9.2 mph - N/A   Clear
6:15 PM 86.0 °F 86.6 °F 62.6 °F 45% 29.98 in 10.0 mi NE 6.9 mph - N/A   Clear
6:35 PM 86.0 °F 87.3 °F 64.4 °F 48% 29.97 in 10.0 mi NE 6.9 mph - N/A   Clear
6:55 PM 86.0 °F 87.3 °F 64.4 °F 48% 29.97 in 10.0 mi ENE 5.8 mph - N/A   Clear
7:15 PM 86.0 °F 87.3 °F 64.4 °F 48% 29.97 in 10.0 mi ENE 6.9 mph - N/A   Clear
7:35 PM 84.2 °F 85.0 °F 62.6 °F 48% 29.98 in 10.0 mi ENE 4.6 mph - N/A   Clear
7:55 PM 82.4 °F 83.4 °F 62.6 °F 51% 29.99 in 10.0 mi NE 5.8 mph - N/A   Clear
8:15 PM 80.6 °F 81.8 °F 62.6 °F 54% 29.99 in 10.0 mi NE 3.5 mph - N/A   Clear
8:35 PM 77.0 °F - 62.6 °F 61% 29.99 in 10.0 mi ENE 5.8 mph - N/A   Clear
8:55 PM 75.2 °F - 60.8 °F 61% 30.00 in 10.0 mi ENE 4.6 mph - N/A   Clear
9:15 PM 73.4 °F - 60.8 °F 65% 30.00 in 10.0 mi ENE 5.8 mph - N/A   Clear
9:35 PM 73.4 °F - 60.8 °F 65% 30.01 in 10.0 mi ENE 6.9 mph - N/A   Clear
9:55 PM 73.4 °F - 60.8 °F 65% 30.01 in 10.0 mi ENE 6.9 mph - N/A   Clear
10:15 PM 73.4 °F - 60.8 °F 65% 30.01 in 10.0 mi ENE 8.1 mph - N/A   Clear
10:35 PM 73.4 °F - 60.8 °F 65% 30.02 in 10.0 mi East 8.1 mph - N/A   Clear
10:55 PM 73.4 °F - 60.8 °F 65% 30.02 in 10.0 mi East 6.9 mph - N/A   Clear
11:15 PM 73.4 °F - 60.8 °F 65% 30.01 in 10.0 mi East 8.1 mph - N/A   Clear
11:35 PM 73.4 °F - 60.8 °F 65% 30.02 in 10.0 mi East 5.8 mph - N/A   Clear
11:55 PM 71.6 °F - 60.8 °F 69% 30.02 in 10.0 mi East 8.1 mph - N/A   Clear